Vorticity
28 24 5 27 17 3 9 6 8 8 10 6 8 6 6 8 4 9 8 5 5 3 5 4 7 8 5 2 5 7 3 6 5 7 5 6 6 9 16 10 5 6 6 5 5
11 15 29 11 16 27 10 4 7 12 12 8 6 8 8 6 6 4 9 8 7 7 6 5 3 4 8 7 6 5 4 4 2 3 4 5 5 5 8 14 14 5 7 7 6
-1 2 25 35 12 10 20 14 32 10 -7 14 5 7 8 9 6 7 7 5 7 5 5 5 6 4 4 7 7 7 6 3 4 3 4 5 3 0 4 6 14 12 8 4 7
15 -16 19 39 20 9 16 22 -9 12 -6 4 10 9 10 8 7 6 8 10 7 6 7 7 7 7 6 7 9 9 8 5 7 7 5 5 6 5 5 7 9 11 13 10 6
17 20 18 33 35 13 11 20 10 4 8 7 10 11 9 10 9 6 8 7 7 6 6 9 9 8 6 5 9 10 8 8 8 8 10 8 5 7 6 7 6 14 15 12 11
19 7 15 6 41 15 10 19 10 10 4 12 1 8 7 9 11 11 4 4 4 5 5 7 6 6 8 7 8 6 7 9 13 10 7 9 5 8 10 8 4 6 11 11 11
71 1 21 8 31 16 12 14 16 10 17 15 12 10 10 5 -2 1 9 8 9 11 11 10 9 7 6 8 8 9 11 14 14 10 10 11 8 10 8 9 13 6 5 12 9
-12 9 14 23 30 18 11 11 17 16 8 15 6 6 10 11 11 10 10 11 10 7 7 8 10 11 9 11 14 13 14 10 11 11 8 7 12 11 12 9 7 7 7 6 7
31 5 20 24 31 18 12 12 11 8 6 3 8 9 10 10 11 11 9 8 7 10 11 9 9 10 11 11 12 10 9 10 2 9 12 17 9 5 4 7 6 11 10 7 5
2 25 19 22 25 13 18 30 14 16 4 -2 9 10 15 10 11 11 12 12 10 9 10 10 8 8 10 10 8 8 13 18 47 45 30 27 18 30 33 36 11 6 10 11 11
27 19 36 6 22 23 12 14 -5 21 14 14 13 10 11 14 12 7 7 8 8 7 8 7 10 7 9 5 11 55 48 8 15 -1 12 48 77 41 19 33 82 97 23 7 10
46 28 -6 10 25 -3 9 10 21 4 4 5 11 11 8 5 7 10 4 5 9 12 14 23 36 51 59 56 20 1 6 9 17 -2 5 -0 -4 -3 6 8 15 16 38 66 23
10 13 16 3 25 17 17 6 -8 5 4 10 8 7 7 10 5 7 17 37 37 48 33 20 18 7 3 3 6 11 10 4 6 11 7 6 23 -0 2 3 12 29 22 54 49
23 50 3 21 19 25 26 18 20 15 9 7 2 10 8 3 14 23 26 -6 1 12 5 3 -9 12 17 12 2 7 3 -6 15 16 16 5 7 23 12 3 8 21 14 27 67
10 16 13 10 7 7 9 7 4 3 5 14 9 14 4 9 9 12 2 6 5 5 5 -0 -1 -9 5 9 5 9 18 17 13 8 10 20 13 24 21 17 13 17 9 16 5
4 4 9 8 7 5 5 8 3 1 13 5 10 6 17 3 5 6 9 7 2 2 1 8 4 9 13 8 10 -3 8 13 14 26 18 16 15 14 17 20 12 10 20 13 19
16 14 13 11 11 14 8 4 8 22 12 14 6 18 1 2 4 8 5 8 8 8 13 10 7 7 6 9 10 17 21 21 16 10 16 13 11 2 12 18 21 25 29 30 21
6 8 8 8 7 9 10 7 19 -4 9 5 18 5 -2 2 4 7 2 12 14 13 12 11 16 25 16 19 16 14 10 11 3 10 8 5 9 9 6 4 28 6 6 39 18
13 4 9 14 14 12 14 15 16 15 12 18 18 3 5 2 4 4 11 14 12 12 12 12 5 7 13 6 8 23 11 11 22 11 17 5 11 13 24 9 22 -2 -2 -3 27
9 12 4 6 12 17 15 10 24 14 14 16 9 11 3 8 4 16 17 13 6 5 5 2 4 5 3 7 7 10 10 14 15 10 15 21 26 29 33 30 35 30 24 29 3
16 18 14 12 10 13 13 19 18 21 16 20 -3 -8 11 13 21 16 9 3 2 4 3 6 5 6 5 7 7 15 13 12 9 3 7 7 4 2 4 -2 -6 17 15 7 4
10 10 23 15 17 14 9 11 13 12 13 15 13 15 26 13 4 2 4 1 6 8 10 20 14 15 12 9 6 8 20 11 -4 1 14 7 7 -1 -6 5 -5 11 3 13 14
16 11 11 13 10 9 12 13 11 6 7 5 9 15 -7 -9 -3 2 -0 -0 9 10 22 12 12 18 24 20 11 8 8 9 15 9 8 14 7 23 17 20 12 11 -3 -0 3
10 13 4 8 8 10 3 4 2 4 6 7 9 10 -3 -6 3 -6 -1 4 26 22 17 8 8 5 5 6 17 22 20 15 4 9 8 4 -0 5 -1 -5 2 3 3 2 6
3 5 13 8 -4 4 8 13 3 3 4 4 3 -1 -6 -2 5 9 14 32 20 10 4 6 5 4 2 2 4 5 4 5 5 6 9 8 13 16 16 19 17 14 16 11 8
7 8 4 9 16 2 1 -1 2 -4 3 7 -0 2 10 9 18 25 10 6 6 4 4 4 1 5 6 5 4 5 6 6 5 8 7 9 10 7 3 5 7 8 11 11 10
1 1 6 6 3 5 9 5 5 7 19 15 14 16 12 12 5 6 5 5 4 5 6 6 6 6 9 7 7 6 7 7 6 4 6 8 8 12 13 11 9 7 5 3 3
Height
5600 5604 5614 5625 5635 5644 5656 5665 5676 5680 5689 5699 5704 5710 5716 5720 5725 5729 5734 5738 5740 5743 5745 5747 5749 5751 5753 5754 5755 5756 5759 5760 5759 5759 5760 5761 5763 5765 5768 5772 5773 5773 5775 5782 5786
5589 5592 5601 5610 5622 5632 5643 5656 5667 5675 5682 5689 5697 5702 5708 5714 5719 5723 5727 5731 5733 5736 5739 5741 5743 5745 5747 5747 5749 5750 5752 5751 5751 5752 5752 5752 5754 5755 5758 5760 5764 5764 5766 5768 5774
5579 5584 5589 5599 5610 5622 5635 5647 5656 5668 5675 5679 5688 5696 5702 5706 5713 5716 5720 5724 5727 5729 5731 5734 5736 5738 5739 5740 5741 5742 5744 5743 5743 5742 5743 5743 5744 5745 5748 5750 5749 5751 5753 5756 5759
5570 5576 5583 5587 5601 5613 5626 5641 5649 5658 5668 5671 5681 5691 5696 5702 5707 5710 5714 5718 5720 5722 5724 5726 5728 5729 5731 5733 5733 5734 5733 5733 5734 5732 5733 5732 5735 5737 5736 5738 5737 5740 5742 5743 5748
5566 5573 5579 5584 5592 5607 5620 5633 5642 5653 5661 5668 5676 5686 5691 5696 5700 5705 5708 5711 5713 5714 5717 5719 5721 5722 5723 5724 5724 5724 5722 5723 5723 5721 5720 5721 5724 5724 5729 5725 5725 5726 5730 5733 5734
5563 5569 5574 5581 5589 5601 5616 5628 5636 5647 5656 5665 5671 5678 5686 5693 5696 5699 5703 5705 5706 5708 5710 5711 5712 5712 5713 5713 5714 5713 5712 5711 5710 5707 5706 5706 5712 5711 5716 5709 5712 5711 5713 5716 5721
5558 5567 5573 5581 5587 5598 5613 5623 5636 5645 5653 5661 5667 5673 5680 5687 5690 5693 5697 5698 5700 5701 5703 5704 5705 5704 5704 5704 5703 5703 5703 5700 5697 5694 5692 5691 5705 5702 5698 5695 5696 5694 5696 5701 5708
5565 5571 5574 5582 5589 5598 5611 5623 5635 5644 5650 5658 5665 5670 5677 5682 5685 5688 5690 5693 5694 5694 5696 5696 5697 5697 5695 5695 5694 5693 5692 5690 5686 5681 5678 5681 5696 5687 5681 5670 5676 5681 5684 5687 5693
5568 5572 5578 5585 5591 5601 5612 5623 5634 5643 5651 5657 5664 5669 5674 5678 5681 5684 5686 5687 5689 5689 5689 5690 5691 5689 5688 5686 5685 5683 5681 5679 5676 5669 5670 5665 5676 5668 5657 5647 5665 5668 5668 5668 5672
5571 5574 5581 5588 5596 5606 5614 5624 5634 5643 5650 5656 5662 5669 5673 5676 5678 5680 5683 5684 5684 5685 5685 5685 5683 5680 5679 5677 5676 5674 5673 5669 5665 5663 5657 5648 5657 5645 5634 5634 5641 5642 5645 5645 5652
5572 5578 5587 5594 5600 5609 5618 5626 5638 5646 5650 5656 5663 5668 5672 5675 5678 5679 5679 5680 5680 5680 5679 5677 5676 5673 5672 5670 5669 5668 5665 5663 5659 5656 5653 5643 5639 5634 5627 5623 5620 5619 5622 5625 5632
5581 5585 5591 5600 5606 5615 5623 5632 5639 5648 5654 5659 5663 5668 5670 5673 5676 5678 5679 5679 5678 5675 5673 5671 5668 5666 5665 5664 5665 5664 5661 5659 5655 5652 5647 5641 5636 5629 5623 5617 5612 5607 5602 5600 5607
5596 5599 5603 5608 5613 5622 5628 5637 5643 5648 5654 5660 5664 5668 5672 5676 5677 5678 5679 5677 5676 5673 5670 5668 5668 5667 5666 5665 5664 5662 5660 5657 5654 5649 5642 5636 5632 5624 5618 5613 5605 5599 5592 5585 5586
5609 5612 5617 5619 5626 5629 5636 5642 5646 5651 5658 5664 5667 5671 5673 5676 5679 5679 5679 5680 5678 5676 5674 5673 5672 5670 5667 5665 5664 5662 5658 5655 5650 5645 5640 5633 5628 5620 5614 5608 5603 5597 5590 5582 5577
5625 5628 5631 5633 5637 5640 5646 5649 5653 5657 5662 5667 5669 5672 5676 5680 5682 5682 5682 5682 5680 5678 5678 5677 5673 5670 5668 5666 5663 5661 5657 5652 5648 5642 5637 5631 5624 5617 5611 5606 5601 5596 5591 5585 5582
5638 5639 5642 5644 5646 5648 5653 5656 5659 5663 5665 5669 5672 5676 5680 5683 5684 5684 5684 5683 5681 5680 5679 5677 5673 5670 5667 5664 5662 5661 5657 5652 5645 5640 5635 5629 5622 5617 5610 5606 5602 5598 5593 5589 5586
5652 5651 5651 5652 5655 5656 5659 5662 5665 5667 5670 5674 5676 5679 5683 5685 5686 5686 5686 5685 5683 5681 5679 5677 5674 5671 5667 5663 5661 5659 5655 5651 5646 5640 5635 5629 5624 5619 5614 5609 5603 5600 5596 5593 5591
5665 5663 5662 5661 5662 5664 5666 5668 5671 5672 5675 5677 5680 5684 5687 5689 5689 5689 5688 5685 5683 5682 5680 5677 5675 5671 5667 5665 5662 5659 5655 5651 5647 5642 5638 5633 5628 5624 5619 5615 5611 5605 5603 5600 5599
5673 5674 5673 5671 5670 5671 5673 5674 5676 5678 5680 5682 5685 5688 5690 5691 5692 5690 5688 5687 5685 5683 5682 5679 5677 5674 5671 5668 5665 5660 5658 5655 5651 5646 5641 5636 5633 5629 5623 5620 5616 5613 5611 5610 5609
5684 5682 5682 5679 5678 5678 5679 5680 5681 5683 5686 5689 5691 5692 5693 5694 5694 5692 5691 5690 5688 5687 5685 5682 5679 5677 5674 5672 5668 5664 5662 5660 5655 5652 5646 5642 5639 5634 5629 5626 5622 5619 5617 5617 5618
5691 5691 5689 5688 5687 5687 5686 5687 5688 5690 5692 5694 5696 5697 5697 5697 5696 5696 5697 5695 5692 5691 5688 5686 5683 5681 5678 5676 5671 5669 5666 5663 5661 5658 5655 5650 5647 5642 5638 5635 5633 5629 5627 5626 5629
5702 5699 5697 5697 5696 5694 5694 5696 5695 5696 5698 5700 5701 5702 5702 5702 5702 5701 5701 5699 5696 5694 5690 5688 5685 5682 5681 5679 5676 5672 5670 5669 5666 5664 5660 5658 5656 5652 5649 5646 5644 5640 5639 5637 5638
5710 5708 5706 5706 5705 5704 5704 5705 5705 5705 5704 5704 5706 5707 5707 5707 5707 5706 5704 5702 5700 5698 5695 5692 5689 5686 5683 5682 5680 5677 5675 5672 5670 5666 5664 5664 5663 5659 5655 5653 5653 5650 5648 5647 5647
5720 5717 5716 5714 5712 5712 5714 5714 5714 5714 5714 5713 5712 5711 5710 5710 5710 5709 5707 5705 5702 5700 5698 5697 5694 5692 5690 5687 5685 5683 5680 5678 5675 5672 5670 5669 5667 5666 5666 5664 5661 5658 5655 5654 5655
5732 5726 5722 5721 5720 5719 5720 5720 5721 5721 5721 5720 5719 5718 5717 5715 5713 5712 5710 5708 5705 5704 5702 5701 5699 5697 5695 5692 5690 5688 5686 5683 5681 5678 5675 5673 5671 5670 5670 5669 5666 5663 5663 5662 5661
5737 5736 5731 5726 5726 5726 5725 5726 5726 5725 5725 5725 5723 5722 5721 5719 5718 5716 5714 5712 5711 5709 5707 5705 5704 5702 5699 5697 5695 5692 5689 5687 5684 5682 5680 5679 5677 5676 5674 5672 5670 5669 5669 5668 5668
5743 5740 5738 5735 5730 5729 5730 5729 5728 5727 5728 5727 5726 5724 5723 5722 5721 5719 5718 5716 5714 5713 5710 5709 5707 5705 5703 5700 5698 5696 5693 5691 5689 5686 5685 5683 5682 5680 5679 5677 5676 5675 5673 5673 5672